Home   Weather   Marigot   Past weeks

Past Weather in Marigot, Saint Martin — Yesterday and Last 2 Weeks

Now
73 °F

Passing clouds.


Feels Like: 73 °F
Forecast: 67 / 79 °F
Wind: 3 mph from North

Location: Juliana Airport - Saint Maarten

Current Time: Jan 20, 2017 at 6:06:42 am

Latest Report: Jan 20, 2017 at 5:00 am


Visibility: N/A

Pressure: 29.95 "Hg

Humidity: 83%

Dew Point: 68 °F

Location of MarigotLocation

Past Weather in Marigot — Graph

°F

Marigot Temperature Yesterday

Maximum temperature yesterday: 82 °F (at 12:00 pm)
Minimum temperature yesterday: 72 °F (at 5:00 am)
Average temperature yesterday: 76 °F

High & Low Weather Summary for the Past Weeks

 TemperatureHumidityPressure
High82 °F (Jan 5, 11:00 am)100% (Jan 11, 5:00 am)30.12 "Hg (Jan 11, 5:00 am)
Low72 °F (Jan 11, 4:14 am)51% (Jan 9, 3:00 pm)29.92 "Hg (Jan 10, 2:00 pm)
Average78 °F74%30.02 "Hg
* Reported Jan 5 4:00 am — Jan 20 4:00 am, Marigot, Weather by CustomWeather, © 2017

Note: Actual official high and low records may vary slightly from our data, if they occured in-between our weather recording intervals... More about our weather records

Advertising

Marigot Weather History for the Previous 24 Hours

Scroll right to see more
 ConditionsComfort  
Time TempWeatherWind HumidityBarometerVisibility
4:00 am
Fri, Jan 20
73 °FPassing clouds.3 mph89%29.92 "HgN/A
3:00 am72 °FPassing clouds.1 mph94%29.95 "HgN/A
2:00 am72 °FPassing clouds.No wind94%29.95 "HgN/A
1:00 am73 °FPassing clouds.No wind89%29.98 "HgN/A
12:00 am73 °FPassing clouds.2 mph83%29.98 "HgN/A
11:00 pm
Thu, Jan 19
73 °FPassing clouds.1 mph83%29.98 "HgN/A
10:00 pm73 °FPassing clouds.2 mph83%30.01 "HgN/A
9:00 pm73 °FPassing clouds.1 mph83%29.98 "HgN/A
8:00 pm75 °FPassing clouds.3 mph78%29.98 "HgN/A
7:00 pm75 °FPassing clouds.2 mph78%29.95 "HgN/A
6:00 pm77 °FPassing clouds.3 mph74%29.95 "HgN/A
5:00 pm79 °FPassing clouds.5 mph65%29.92 "HgN/A
4:00 pm81 °FScattered clouds.7 mph62%29.92 "HgN/A
3:00 pm82 °FScattered clouds.7 mph58%29.92 "HgN/A
2:00 pm81 °FScattered clouds.6 mph62%29.92 "HgN/A
1:00 pm81 °FScattered clouds.7 mph62%29.95 "HgN/A
12:00 pm82 °FPassing clouds.5 mph58%30.01 "HgN/A
11:00 am81 °FPassing clouds.6 mph58%30.01 "HgN/A
10:00 am81 °FPassing clouds.7 mph62%30.04 "HgN/A
9:00 am79 °FPassing clouds.7 mph61%30.04 "HgN/A
7:00 am72 °FPassing clouds.3 mph83%29.98 "HgN/A
6:00 am72 °FPassing clouds.6 mph83%29.98 "HgN/A
Weather by CustomWeather, © 2017

See weather overviewHow to use our weather pages